カタログに戻る

HORUS 1

運用中科学SSO
NORAD 55690·PAYLOAD·🇪🇬 Egypt

打ち上げ Feb 24, 2023 から Jiuquan Satellite Launch Center

Loading…

次のパス (今後24時間)

TLE

最新Source: Space-Track

元期: Sep 14, 2026, 22:38 UTC

1 55690U 23025A   26257.94360396  .00004894  00000-0  20836-3 0  9996
2 55690  97.3388 330.6143 0001695 127.1045 233.0347 15.23437234197717

AllMySatでHORUS 1をリアルタイム追跡

Download on the App Store